Time,TemperatureF,DewpointF,PressureIn,WindDirection,WindDirectionDegrees,WindSpeedMPH,WindSpeedGustMPH,Humidity,HourlyPrecipIn,Conditions,Clouds,dailyrainin,SoftwareType,DateUTC
2013-08-28 00:03:00,63.5,59.7,29.48,North,0,0.0,0.0,87,0.00,,,0.00,WUHU216HW,2013-08-28 07:03:00,
2013-08-28 00:08:00,63.5,59.7,29.49,North,0,0.0,0.0,87,0.00,,,0.00,WUHU216HW,2013-08-28 07:08:00,
2013-08-28 00:13:00,63.7,59.9,29.48,North,0,0.0,0.0,87,0.00,,,0.00,WUHU216HW,2013-08-28 07:13:00,
2013-08-28 00:18:00,63.5,59.7,29.48,North,0,0.0,0.0,87,0.00,,,0.00,WUHU216HW,2013-08-28 07:18:00,
2013-08-28 00:23:00,63.7,59.9,29.48,North,0,0.0,0.0,87,0.00,,,0.00,WUHU216HW,2013-08-28 07:23:00,
2013-08-28 00:28:00,63.5,59.7,29.48,North,0,0.0,0.0,87,0.00,,,0.00,WUHU216HW,2013-08-28 07:28:00,
2013-08-28 00:33:00,63.5,59.7,29.48,North,0,0.0,0.0,87,0.00,,,0.00,WUHU216HW,2013-08-28 07:33:00,
2013-08-28 00:38:00,63.4,59.8,29.48,North,0,0.0,0.0,88,0.00,,,0.00,WUHU216HW,2013-08-28 07:38:00,
2013-08-28 00:43:00,63.4,59.8,29.48,North,0,0.0,0.0,88,0.00,,,0.00,WUHU216HW,2013-08-28 07:43:00,
2013-08-28 00:48:00,63.2,59.6,29.48,North,0,0.0,0.0,88,0.00,,,0.00,WUHU216HW,2013-08-28 07:48:00,
2013-08-28 00:53:00,63.2,59.6,29.48,North,0,0.0,0.0,88,0.00,,,0.00,WUHU216HW,2013-08-28 07:53:00,
2013-08-28 00:58:00,63.0,59.4,29.48,North,0,0.0,0.0,88,0.00,,,0.00,WUHU216HW,2013-08-28 07:58:00,
2013-08-28 01:03:00,63.0,59.4,29.48,North,0,0.0,0.0,88,0.00,,,0.00,WUHU216HW,2013-08-28 08:03:00,
2013-08-28 01:08:00,62.8,59.2,29.48,North,0,0.0,0.0,88,0.00,,,0.00,WUHU216HW,2013-08-28 08:08:00,
2013-08-28 01:13:00,62.8,59.2,29.48,North,0,0.0,0.0,88,0.00,,,0.00,WUHU216HW,2013-08-28 08:13:00,
2013-08-28 01:18:00,62.8,59.2,29.47,North,0,0.0,0.0,88,0.00,,,0.00,WUHU216HW,2013-08-28 08:18:00,
2013-08-28 01:23:00,62.8,59.2,29.48,North,0,0.0,0.0,88,0.00,,,0.00,WUHU216HW,2013-08-28 08:23:00,
2013-08-28 01:28:00,62.6,59.0,29.48,North,0,0.0,0.0,88,0.00,,,0.00,WUHU216HW,2013-08-28 08:28:00,
2013-08-28 01:33:00,62.6,59.0,29.48,North,0,0.0,0.0,88,0.00,,,0.00,WUHU216HW,2013-08-28 08:33:00,
2013-08-28 01:38:00,62.6,59.4,29.47,North,0,0.0,0.0,89,0.00,,,0.00,WUHU216HW,2013-08-28 08:38:00,
2013-08-28 01:43:00,62.6,59.4,29.48,North,0,0.0,0.0,89,0.00,,,0.00,WUHU216HW,2013-08-28 08:43:00,
2013-08-28 01:48:00,62.5,58.9,29.48,North,0,0.0,0.0,88,0.00,,,0.00,WUHU216HW,2013-08-28 08:48:00,
2013-08-28 01:53:00,62.5,59.2,29.47,North,0,0.0,0.0,89,0.00,,,0.00,WUHU216HW,2013-08-28 08:53:00,
2013-08-28 01:58:00,62.5,59.2,29.47,North,0,0.0,0.0,89,0.00,,,0.00,WUHU216HW,2013-08-28 08:58:00,
2013-08-28 02:03:00,62.5,59.2,29.47,North,0,0.0,0.0,89,0.00,,,0.00,WUHU216HW,2013-08-28 09:03:00,
2013-08-28 02:08:00,62.3,59.0,29.47,North,0,0.0,0.0,89,0.00,,,0.00,WUHU216HW,2013-08-28 09:08:00,
2013-08-28 02:13:00,62.5,59.2,29.47,North,0,0.0,0.0,89,0.00,,,0.00,WUHU216HW,2013-08-28 09:13:00,
2013-08-28 02:18:00,62.3,59.0,29.47,North,0,0.0,0.0,89,0.00,,,0.00,WUHU216HW,2013-08-28 09:18:00,
2013-08-28 02:23:00,62.3,59.0,29.47,North,0,0.0,0.0,89,0.00,,,0.00,WUHU216HW,2013-08-28 09:23:00,
2013-08-28 02:28:00,62.3,59.0,29.47,North,0,0.0,0.0,89,0.00,,,0.00,WUHU216HW,2013-08-28 09:28:00,
2013-08-28 02:33:00,62.3,59.0,29.47,North,0,0.0,0.0,89,0.00,,,0.00,WUHU216HW,2013-08-28 09:33:00,
2013-08-28 02:34:00,62.3,59.0,29.47,North,0,0.0,0.0,89,0.00,,,0.00,WUHU216HW,2013-08-28 09:34:00,
2013-08-28 02:39:00,62.5,59.2,29.47,North,0,0.0,0.0,89,0.00,,,0.00,WUHU216HW,2013-08-28 09:39:00,
2013-08-28 02:44:00,62.3,59.0,29.47,North,0,0.0,0.0,89,0.00,,,0.00,WUHU216HW,2013-08-28 09:44:00,
2013-08-28 02:49:00,62.3,59.0,29.47,North,0,0.0,0.0,89,0.00,,,0.00,WUHU216HW,2013-08-28 09:49:00,
2013-08-28 02:54:00,62.3,59.0,29.47,North,0,0.0,0.0,89,0.00,,,0.00,WUHU216HW,2013-08-28 09:54:00,
2013-08-28 02:59:00,62.3,59.0,29.46,North,0,0.0,0.0,89,0.00,,,0.00,WUHU216HW,2013-08-28 09:59:00,
2013-08-28 03:04:00,62.3,59.0,29.47,North,0,0.0,0.0,89,0.00,,,0.00,WUHU216HW,2013-08-28 10:04:00,
2013-08-28 03:08:00,62.3,59.0,29.47,North,0,0.0,0.0,89,0.00,,,0.00,WUHU216HW,2013-08-28 10:08:00,
2013-08-28 03:14:00,62.3,59.0,29.47,North,0,0.0,0.0,89,0.00,,,0.00,WUHU216HW,2013-08-28 10:14:00,
2013-08-28 03:18:00,62.3,59.0,29.46,North,0,0.0,0.0,89,0.00,,,0.00,WUHU216HW,2013-08-28 10:18:00,
2013-08-28 03:23:00,62.3,59.0,29.46,North,0,0.0,0.0,89,0.00,,,0.00,WUHU216HW,2013-08-28 10:23:00,
2013-08-28 03:28:00,62.3,59.0,29.46,North,0,0.0,0.0,89,0.00,,,0.00,WUHU216HW,2013-08-28 10:28:00,
2013-08-28 03:33:00,62.3,59.0,29.46,North,0,0.0,0.0,89,0.00,,,0.00,WUHU216HW,2013-08-28 10:33:00,
2013-08-28 03:38:00,62.3,59.0,29.47,North,0,0.0,0.0,89,0.00,,,0.00,WUHU216HW,2013-08-28 10:38:00,
2013-08-28 03:43:00,62.3,59.0,29.46,North,0,0.0,0.0,89,0.00,,,0.00,WUHU216HW,2013-08-28 10:43:00,
2013-08-28 03:48:00,62.3,59.0,29.46,North,0,0.0,0.0,89,0.00,,,0.00,WUHU216HW,2013-08-28 10:48:00,
2013-08-28 03:53:00,62.3,59.0,29.46,North,0,0.0,0.0,89,0.00,,,0.00,WUHU216HW,2013-08-28 10:53:00,
2013-08-28 03:58:00,62.1,58.9,29.46,North,0,0.0,0.0,89,0.00,,,0.00,WUHU216HW,2013-08-28 10:58:00,
2013-08-28 04:03:00,62.1,58.9,29.47,North,0,0.0,0.0,89,0.00,,,0.00,WUHU216HW,2013-08-28 11:03:00,
2013-08-28 04:08:00,62.1,59.2,29.46,North,0,0.0,0.0,90,0.00,,,0.00,WUHU216HW,2013-08-28 11:08:00,
2013-08-28 04:13:00,62.1,59.2,29.46,North,0,0.0,0.0,90,0.00,,,0.00,WUHU216HW,2013-08-28 11:13:00,
2013-08-28 04:18:00,61.9,59.0,29.46,North,0,0.0,0.0,90,0.00,,,0.00,WUHU216HW,2013-08-28 11:18:00,
2013-08-28 04:23:00,62.1,59.2,29.46,North,0,0.0,0.0,90,0.00,,,0.00,WUHU216HW,2013-08-28 11:23:00,
2013-08-28 04:28:00,62.1,59.2,29.46,North,0,0.0,0.0,90,0.00,,,0.00,WUHU216HW,2013-08-28 11:28:00,
2013-08-28 04:33:00,61.9,59.0,29.46,North,0,0.0,0.0,90,0.00,,,0.00,WUHU216HW,2013-08-28 11:33:00,
2013-08-28 04:38:00,61.9,59.0,29.46,North,0,0.0,0.0,90,0.00,,,0.00,WUHU216HW,2013-08-28 11:38:00,
2013-08-28 04:43:00,61.9,59.0,29.46,North,0,0.0,0.0,90,0.00,,,0.00,WUHU216HW,2013-08-28 11:43:00,
2013-08-28 06:25:00,61.9,59.0,29.46,North,0,0.0,0.0,90,0.00,,,0.00,WUHU216HW,2013-08-28 13:25:00,
2013-08-28 06:30:00,61.9,59.0,29.46,North,0,0.0,0.0,90,0.00,,,0.00,WUHU216HW,2013-08-28 13:30:00,
2013-08-28 06:58:00,61.6,58.7,29.49,North,0,0.0,0.0,90,0.00,,,0.00,WUHU216HW,2013-08-28 13:58:00,
2013-08-28 07:03:00,61.7,58.9,29.49,North,0,0.0,0.0,90,0.00,,,0.00,WUHU216HW,2013-08-28 14:03:00,
2013-08-28 07:08:00,61.9,59.0,29.50,North,0,0.0,0.0,90,0.00,,,0.00,WUHU216HW,2013-08-28 14:08:00,
2013-08-28 07:13:00,62.5,59.6,29.50,North,0,0.0,0.0,90,0.00,,,0.00,WUHU216HW,2013-08-28 14:13:00,
2013-08-28 07:18:00,62.8,59.9,29.50,North,0,0.0,0.0,90,0.00,,,0.00,WUHU216HW,2013-08-28 14:18:00,
2013-08-28 07:23:00,63.0,60.1,29.50,North,0,0.0,0.0,90,0.00,,,0.00,WUHU216HW,2013-08-28 14:23:00,
2013-08-28 07:28:00,63.4,60.5,29.50,North,0,0.0,0.0,90,0.00,,,0.00,WUHU216HW,2013-08-28 14:28:00,
2013-08-28 07:33:00,63.9,61.0,29.51,North,0,0.0,0.0,90,0.00,,,0.00,WUHU216HW,2013-08-28 14:33:00,
2013-08-28 07:38:00,64.3,61.4,29.51,North,0,0.0,0.0,90,0.00,,,0.00,WUHU216HW,2013-08-28 14:38:00,
2013-08-28 07:43:00,64.6,61.4,29.51,North,0,0.0,0.0,89,0.00,,,0.00,WUHU216HW,2013-08-28 14:43:00,
2013-08-28 07:48:00,64.8,61.6,29.51,North,0,0.0,0.0,89,0.00,,,0.00,WUHU216HW,2013-08-28 14:48:00,
2013-08-28 07:53:00,65.2,61.8,29.51,North,0,0.0,0.0,89,0.00,,,0.00,WUHU216HW,2013-08-28 14:53:00,
2013-08-28 07:58:00,65.2,61.6,29.52,North,0,0.0,0.0,88,0.00,,,0.00,WUHU216HW,2013-08-28 14:58:00,
2013-08-28 08:03:00,65.5,62.2,29.52,North,0,0.0,0.0,89,0.00,,,0.00,WUHU216HW,2013-08-28 15:03:00,
2013-08-28 08:08:00,66.1,62.4,29.52,North,0,0.0,0.0,88,0.00,,,0.00,WUHU216HW,2013-08-28 15:08:00,
2013-08-28 08:13:00,66.2,62.6,29.52,North,0,0.0,0.0,88,0.00,,,0.00,WUHU216HW,2013-08-28 15:13:00,
2013-08-28 08:18:00,66.8,62.7,29.52,North,0,0.0,0.0,87,0.00,,,0.00,WUHU216HW,2013-08-28 15:18:00,
2013-08-28 08:23:00,67.0,62.9,29.52,North,0,0.0,0.0,87,0.00,,,0.00,WUHU216HW,2013-08-28 15:23:00,
2013-08-28 08:28:00,67.3,63.0,29.52,North,0,0.0,0.0,86,0.00,,,0.00,WUHU216HW,2013-08-28 15:28:00,
2013-08-28 08:33:00,67.3,63.0,29.52,North,0,0.0,0.0,86,0.00,,,0.00,WUHU216HW,2013-08-28 15:33:00,
2013-08-28 08:38:00,67.5,62.8,29.52,North,0,0.0,0.0,85,0.00,,,0.00,WUHU216HW,2013-08-28 15:38:00,
2013-08-28 08:43:00,67.7,63.0,29.52,North,0,0.0,0.0,85,0.00,,,0.00,WUHU216HW,2013-08-28 15:43:00,
2013-08-28 08:48:00,67.9,62.8,29.52,North,0,0.0,0.0,84,0.00,,,0.00,WUHU216HW,2013-08-28 15:48:00,
2013-08-28 08:53:00,68.0,63.0,29.52,North,0,0.0,0.0,84,0.00,,,0.00,WUHU216HW,2013-08-28 15:53:00,
2013-08-28 08:58:00,68.2,63.2,29.52,North,0,0.0,0.0,84,0.00,,,0.00,WUHU216HW,2013-08-28 15:58:00,
2013-08-28 09:03:00,68.4,63.1,29.52,North,0,0.0,0.0,83,0.00,,,0.00,WUHU216HW,2013-08-28 16:03:00,
2013-08-28 09:08:00,68.4,63.1,29.53,North,0,0.0,0.0,83,0.00,,,0.00,WUHU216HW,2013-08-28 16:08:00,
2013-08-28 09:13:00,69.1,63.7,29.53,North,0,0.0,0.0,83,0.00,,,0.00,WUHU216HW,2013-08-28 16:13:00,
2013-08-28 09:18:00,69.3,63.5,29.53,North,0,0.0,0.0,82,0.00,,,0.00,WUHU216HW,2013-08-28 16:18:00,
2013-08-28 09:23:00,69.7,63.9,29.53,North,0,0.0,0.0,82,0.00,,,0.00,WUHU216HW,2013-08-28 16:23:00,
2013-08-28 09:28:00,70.0,63.9,29.53,North,0,0.0,0.0,81,0.00,,,0.00,WUHU216HW,2013-08-28 16:28:00,
2013-08-28 09:33:00,70.0,63.9,29.54,North,0,0.0,0.0,81,0.00,,,0.00,WUHU216HW,2013-08-28 16:33:00,
2013-08-28 09:38:00,70.4,63.9,29.54,North,0,0.0,0.0,80,0.00,,,0.00,WUHU216HW,2013-08-28 16:38:00,
2013-08-28 09:43:00,70.4,63.9,29.54,North,0,0.0,0.0,80,0.00,,,0.00,WUHU216HW,2013-08-28 16:43:00,
2013-08-28 09:48:00,70.6,64.1,29.54,North,0,0.0,0.0,80,0.00,,,0.00,WUHU216HW,2013-08-28 16:48:00,
2013-08-28 09:53:00,70.6,64.1,29.54,North,0,0.0,0.0,80,0.00,,,0.00,WUHU216HW,2013-08-28 16:53:00,
2013-08-28 09:58:00,70.9,64.4,29.54,North,0,0.0,0.0,80,0.00,,,0.00,WUHU216HW,2013-08-28 16:58:00,
2013-08-28 10:03:00,71.1,64.6,29.54,North,0,0.0,0.0,80,0.00,,,0.00,WUHU216HW,2013-08-28 17:03:00,
2013-08-28 10:08:00,71.3,64.5,29.54,North,0,0.0,0.0,79,0.00,,,0.00,WUHU216HW,2013-08-28 17:08:00,
2013-08-28 10:13:00,71.5,63.8,29.54,North,0,0.0,0.0,77,0.00,,,0.00,WUHU216HW,2013-08-28 17:13:00,
2013-08-28 10:18:00,71.8,64.6,29.54,North,0,0.0,0.0,78,0.00,,,0.00,WUHU216HW,2013-08-28 17:18:00,
2013-08-28 10:23:00,71.6,62.9,29.54,North,0,0.0,0.0,74,0.00,,,0.00,WUHU216HW,2013-08-28 17:23:00,
2013-08-28 10:28:00,70.9,62.9,29.54,North,0,0.0,0.0,76,0.00,,,0.00,WUHU216HW,2013-08-28 17:28:00,
2013-08-28 10:33:00,70.9,63.3,29.54,North,0,0.0,0.0,77,0.00,,,0.00,WUHU216HW,2013-08-28 17:33:00,
2013-08-28 10:38:00,71.1,63.5,29.55,North,0,0.0,0.0,77,0.00,,,0.00,WUHU216HW,2013-08-28 17:38:00,
2013-08-28 10:43:00,70.6,62.9,29.55,North,0,0.0,0.0,77,0.00,,,0.00,WUHU216HW,2013-08-28 17:43:00,
2013-08-28 10:48:00,70.4,63.2,29.55,North,0,0.0,0.0,78,0.00,,,0.00,WUHU216HW,2013-08-28 17:48:00,
2013-08-28 10:53:00,70.6,63.4,29.55,North,0,0.0,0.0,78,0.00,,,0.00,WUHU216HW,2013-08-28 17:53:00,
2013-08-28 10:58:00,70.6,62.9,29.55,North,0,0.0,0.0,77,0.00,,,0.00,WUHU216HW,2013-08-28 17:58:00,
2013-08-28 11:03:00,70.6,63.4,29.55,North,0,0.0,0.0,78,0.00,,,0.00,WUHU216HW,2013-08-28 18:03:00,
2013-08-28 11:08:00,70.6,62.9,29.55,North,0,0.0,0.0,77,0.00,,,0.00,WUHU216HW,2013-08-28 18:08:00,
2013-08-28 11:13:00,70.4,62.7,29.55,North,0,0.0,0.0,77,0.00,,,0.00,WUHU216HW,2013-08-28 18:13:00,
2013-08-28 11:18:00,70.2,63.0,29.55,North,0,0.0,0.0,78,0.00,,,0.00,WUHU216HW,2013-08-28 18:18:00,
2013-08-28 11:23:00,70.2,63.0,29.55,North,0,0.0,0.0,78,0.00,,,0.00,WUHU216HW,2013-08-28 18:23:00,
2013-08-28 11:28:00,70.2,63.0,29.55,North,0,0.0,0.0,78,0.00,,,0.00,WUHU216HW,2013-08-28 18:28:00,
2013-08-28 11:33:00,70.2,63.0,29.55,North,0,0.0,0.0,78,0.00,,,0.00,WUHU216HW,2013-08-28 18:33:00,
2013-08-28 11:38:00,70.6,62.9,29.55,North,0,0.0,0.0,77,0.00,,,0.00,WUHU216HW,2013-08-28 18:38:00,
2013-08-28 11:43:00,70.6,62.9,29.55,North,0,0.0,0.0,77,0.00,,,0.00,WUHU216HW,2013-08-28 18:43:00,
2013-08-28 11:48:00,70.7,63.1,29.55,North,0,0.0,0.0,77,0.00,,,0.00,WUHU216HW,2013-08-28 18:48:00,
2013-08-28 11:53:00,70.7,63.1,29.55,North,0,0.0,0.0,77,0.00,,,0.00,WUHU216HW,2013-08-28 18:53:00,
2013-08-28 11:58:00,70.9,63.3,29.55,North,0,0.0,0.0,77,0.00,,,0.00,WUHU216HW,2013-08-28 18:58:00,
2013-08-28 12:03:00,70.9,62.9,29.55,North,0,0.0,0.0,76,0.00,,,0.00,WUHU216HW,2013-08-28 19:03:00,
2013-08-28 12:08:00,70.7,63.1,29.55,North,0,0.0,0.0,77,0.00,,,0.00,WUHU216HW,2013-08-28 19:08:00,
2013-08-28 12:13:00,70.9,63.3,29.55,North,0,0.0,0.0,77,0.00,,,0.00,WUHU216HW,2013-08-28 19:13:00,
2013-08-28 12:18:00,71.1,63.1,29.55,North,0,0.0,0.0,76,0.00,,,0.00,WUHU216HW,2013-08-28 19:18:00,
2013-08-28 12:23:00,70.9,62.9,29.55,North,0,0.0,0.0,76,0.00,,,0.00,WUHU216HW,2013-08-28 19:23:00,
2013-08-28 12:28:00,70.9,62.9,29.55,North,0,0.0,0.0,76,0.00,,,0.00,WUHU216HW,2013-08-28 19:28:00,
2013-08-28 12:33:00,71.1,63.1,29.55,North,0,0.0,0.0,76,0.00,,,0.00,WUHU216HW,2013-08-28 19:33:00,
2013-08-28 12:38:00,70.9,62.6,29.55,North,0,0.0,0.0,75,0.00,,,0.00,WUHU216HW,2013-08-28 19:38:00,
2013-08-28 12:43:00,70.7,62.4,29.55,North,0,0.0,0.0,75,0.00,,,0.00,WUHU216HW,2013-08-28 19:43:00,
2013-08-28 12:48:00,70.0,62.0,29.54,North,0,0.0,0.0,76,0.00,,,0.00,WUHU216HW,2013-08-28 19:48:00,
2013-08-28 12:53:00,69.8,62.2,29.55,North,0,0.0,0.0,77,0.00,,,0.00,WUHU216HW,2013-08-28 19:53:00,
2013-08-28 12:58:00,70.0,62.4,29.54,North,0,0.0,0.0,77,0.00,,,0.00,WUHU216HW,2013-08-28 19:58:00,
2013-08-28 13:03:00,70.4,62.7,29.55,North,0,0.0,0.0,77,0.00,,,0.00,WUHU216HW,2013-08-28 20:03:00,
2013-08-28 13:08:00,70.4,62.4,29.55,North,0,0.0,0.0,76,0.00,,,0.00,WUHU216HW,2013-08-28 20:08:00,
2013-08-28 13:13:00,70.0,62.0,29.54,North,0,0.0,0.0,76,0.00,,,0.00,WUHU216HW,2013-08-28 20:13:00,
2013-08-28 13:18:00,70.0,62.0,29.54,North,0,0.0,0.0,76,0.00,,,0.00,WUHU216HW,2013-08-28 20:18:00,
2013-08-28 13:23:00,70.2,62.6,29.54,North,0,0.0,0.0,77,0.00,,,0.00,WUHU216HW,2013-08-28 20:23:00,
2013-08-28 13:28:00,70.4,62.4,29.54,North,0,0.0,0.0,76,0.00,,,0.00,WUHU216HW,2013-08-28 20:28:00,
2013-08-28 13:33:00,70.2,61.8,29.54,North,0,0.0,0.0,75,0.00,,,0.00,WUHU216HW,2013-08-28 20:33:00,
2013-08-28 13:38:00,70.2,62.2,29.54,North,0,0.0,0.0,76,0.00,,,0.00,WUHU216HW,2013-08-28 20:38:00,
2013-08-28 13:43:00,69.8,62.2,29.54,North,0,0.0,0.0,77,0.00,,,0.00,WUHU216HW,2013-08-28 20:43:00,
2013-08-28 13:48:00,69.8,62.2,29.54,North,0,0.0,0.0,77,0.00,,,0.00,WUHU216HW,2013-08-28 20:48:00,
2013-08-28 13:53:00,69.8,62.2,29.54,North,0,0.0,0.0,77,0.00,,,0.00,WUHU216HW,2013-08-28 20:53:00,
2013-08-28 13:58:00,69.8,62.2,29.54,North,0,0.0,0.0,77,0.00,,,0.00,WUHU216HW,2013-08-28 20:58:00,
2013-08-28 18:50:00,69.8,62.2,29.54,North,0,0.0,0.0,77,0.00,,,0.00,WUHU216HW,2013-08-29 01:50:00,
2013-08-28 18:55:00,69.8,62.2,29.54,North,0,0.0,0.0,77,0.00,,,0.00,WUHU216HW,2013-08-29 01:55:00,
2013-08-28 19:00:00,66.8,60.9,29.50,North,0,0.0,0.0,81,0.00,,,0.00,WUHU216HW,2013-08-29 02:00:00,
2013-08-28 19:06:00,65.9,60.6,29.50,North,0,0.0,0.0,83,0.00,,,0.00,WUHU216HW,2013-08-29 02:06:00,
2013-08-28 19:10:00,65.7,60.4,29.50,North,0,0.0,0.0,83,0.00,,,0.00,WUHU216HW,2013-08-29 02:10:00,
2013-08-28 19:15:00,65.2,60.2,29.50,North,0,0.0,0.0,84,0.00,,,0.00,WUHU216HW,2013-08-29 02:15:00,
2013-08-28 19:20:00,64.8,59.9,29.51,North,0,0.0,0.0,84,0.00,,,0.00,WUHU216HW,2013-08-29 02:20:00,
2013-08-28 19:25:00,64.8,60.2,29.51,North,0,0.0,0.0,85,0.00,,,0.00,WUHU216HW,2013-08-29 02:25:00,
2013-08-28 19:30:00,64.4,59.5,29.51,North,0,0.0,0.0,84,0.00,,,0.00,WUHU216HW,2013-08-29 02:30:00,
2013-08-28 19:35:00,64.4,59.5,29.51,North,0,0.0,0.0,84,0.00,,,0.00,WUHU216HW,2013-08-29 02:35:00,
2013-08-28 19:40:00,64.4,59.9,29.51,North,0,0.0,0.0,85,0.00,,,0.00,WUHU216HW,2013-08-29 02:40:00,
2013-08-28 19:45:00,64.1,59.5,29.52,North,0,0.0,0.0,85,0.00,,,0.00,WUHU216HW,2013-08-29 02:45:00,
2013-08-28 19:50:00,64.1,59.5,29.52,North,0,0.0,0.0,85,0.00,,,0.00,WUHU216HW,2013-08-29 02:50:00,
2013-08-28 19:55:00,64.1,59.5,29.52,North,0,0.0,0.0,85,0.00,,,0.00,WUHU216HW,2013-08-29 02:55:00,
2013-08-28 20:00:00,63.9,59.3,29.52,North,0,0.0,0.0,85,0.00,,,0.00,WUHU216HW,2013-08-29 03:00:00,
2013-08-28 20:05:00,63.9,59.3,29.52,North,0,0.0,0.0,85,0.00,,,0.00,WUHU216HW,2013-08-29 03:05:00,
2013-08-28 20:10:00,63.9,59.3,29.52,North,0,0.0,0.0,85,0.00,,,0.00,WUHU216HW,2013-08-29 03:10:00,
2013-08-28 20:15:00,63.9,59.7,29.52,North,0,0.0,0.0,86,0.00,,,0.00,WUHU216HW,2013-08-29 03:15:00,
2013-08-28 20:20:00,63.9,59.7,29.52,North,0,0.0,0.0,86,0.00,,,0.00,WUHU216HW,2013-08-29 03:20:00,
2013-08-28 20:25:00,63.9,59.7,29.52,North,0,0.0,0.0,86,0.00,,,0.00,WUHU216HW,2013-08-29 03:25:00,
2013-08-28 20:30:00,63.7,59.5,29.52,North,0,0.0,0.0,86,0.00,,,0.00,WUHU216HW,2013-08-29 03:30:00,
2013-08-28 20:35:00,63.7,59.5,29.53,North,0,0.0,0.0,86,0.00,,,0.00,WUHU216HW,2013-08-29 03:35:00,
2013-08-28 20:40:00,63.7,59.5,29.53,North,0,0.0,0.0,86,0.00,,,0.00,WUHU216HW,2013-08-29 03:40:00,
2013-08-28 20:45:00,63.9,59.7,29.53,North,0,0.0,0.0,86,0.00,,,0.00,WUHU216HW,2013-08-29 03:45:00,
2013-08-28 20:50:00,63.7,59.5,29.54,North,0,0.0,0.0,86,0.00,,,0.00,WUHU216HW,2013-08-29 03:50:00,
2013-08-28 20:55:00,63.7,59.5,29.54,North,0,0.0,0.0,86,0.00,,,0.00,WUHU216HW,2013-08-29 03:55:00,
2013-08-28 21:00:00,63.7,59.5,29.54,North,0,0.0,0.0,86,0.00,,,0.00,WUHU216HW,2013-08-29 04:00:00,
2013-08-28 21:01:00,63.7,59.5,29.54,North,0,0.0,0.0,86,0.00,,,0.00,WUHU216HW,2013-08-29 04:01:00,
2013-08-28 21:02:00,63.7,59.5,29.54,North,0,0.0,0.0,86,0.00,,,0.00,WUHU216HW,2013-08-29 04:02:00,
2013-08-28 21:07:00,63.7,59.5,29.54,North,0,0.0,0.0,86,0.00,,,0.00,WUHU216HW,2013-08-29 04:07:00,
2013-08-28 21:12:00,63.7,59.9,29.55,North,0,0.0,0.0,87,0.00,,,0.00,WUHU216HW,2013-08-29 04:12:00,
2013-08-28 21:17:00,63.7,59.9,29.55,North,0,0.0,0.0,87,0.00,,,0.00,WUHU216HW,2013-08-29 04:17:00,
2013-08-28 21:22:00,63.7,59.9,29.54,North,0,0.0,0.0,87,0.00,,,0.00,WUHU216HW,2013-08-29 04:22:00,
2013-08-28 21:27:00,63.7,59.9,29.55,North,0,0.0,0.0,87,0.00,,,0.00,WUHU216HW,2013-08-29 04:27:00,
2013-08-28 21:32:00,63.7,59.9,29.55,North,0,0.0,0.0,87,0.00,,,0.00,WUHU216HW,2013-08-29 04:32:00,
2013-08-28 21:37:00,63.5,59.7,29.55,North,0,0.0,0.0,87,0.00,,,0.00,WUHU216HW,2013-08-29 04:37:00,
2013-08-28 21:42:00,63.7,59.9,29.55,North,0,0.0,0.0,87,0.00,,,0.00,WUHU216HW,2013-08-29 04:42:00,
2013-08-28 21:46:00,63.7,59.9,29.55,North,0,0.0,0.0,87,0.00,,,0.00,WUHU216HW,2013-08-29 04:46:00,
2013-08-28 21:51:00,63.5,59.7,29.55,North,0,0.0,0.0,87,0.00,,,0.00,WUHU216HW,2013-08-29 04:51:00,
2013-08-28 21:56:00,63.5,59.7,29.55,North,0,0.0,0.0,87,0.00,,,0.00,WUHU216HW,2013-08-29 04:56:00,
2013-08-28 22:01:00,63.7,59.9,29.56,North,0,0.0,0.0,87,0.00,,,0.00,WUHU216HW,2013-08-29 05:01:00,
2013-08-28 22:06:00,63.7,59.9,29.56,North,0,0.0,0.0,87,0.00,,,0.00,WUHU216HW,2013-08-29 05:06:00,
2013-08-28 22:11:00,63.5,59.7,29.55,North,0,0.0,0.0,87,0.00,,,0.00,WUHU216HW,2013-08-29 05:11:00,
2013-08-28 22:16:00,63.5,59.7,29.56,North,0,0.0,0.0,87,0.00,,,0.00,WUHU216HW,2013-08-29 05:16:00,
2013-08-28 22:21:00,63.5,59.7,29.56,North,0,0.0,0.0,87,0.00,,,0.00,WUHU216HW,2013-08-29 05:21:00,
2013-08-28 22:26:00,63.5,59.7,29.55,North,0,0.0,0.0,87,0.00,,,0.00,WUHU216HW,2013-08-29 05:26:00,
2013-08-28 22:31:00,63.5,59.7,29.56,North,0,0.0,0.0,87,0.00,,,0.00,WUHU216HW,2013-08-29 05:31:00,
2013-08-28 22:36:00,63.5,59.7,29.56,North,0,0.0,0.0,87,0.00,,,0.00,WUHU216HW,2013-08-29 05:36:00,
2013-08-28 22:41:00,63.5,59.7,29.56,North,0,0.0,0.0,87,0.00,,,0.00,WUHU216HW,2013-08-29 05:41:00,
2013-08-28 22:46:00,63.5,59.7,29.56,North,0,0.0,0.0,87,0.00,,,0.00,WUHU216HW,2013-08-29 05:46:00,
2013-08-28 22:51:00,63.5,59.7,29.56,North,0,0.0,0.0,87,0.00,,,0.00,WUHU216HW,2013-08-29 05:51:00,
2013-08-28 22:56:00,63.4,59.5,29.57,North,0,0.0,0.0,87,0.00,,,0.00,WUHU216HW,2013-08-29 05:56:00,
2013-08-28 23:01:00,63.4,59.5,29.57,North,0,0.0,0.0,87,0.00,,,0.00,WUHU216HW,2013-08-29 06:01:00,
2013-08-28 23:06:00,63.4,59.5,29.56,North,0,0.0,0.0,87,0.00,,,0.00,WUHU216HW,2013-08-29 06:06:00,
2013-08-28 23:11:00,63.4,59.5,29.56,North,0,0.0,0.0,87,0.00,,,0.00,WUHU216HW,2013-08-29 06:11:00,
2013-08-28 23:16:00,63.4,59.5,29.56,North,0,0.0,0.0,87,0.00,,,0.00,WUHU216HW,2013-08-29 06:16:00,
2013-08-28 23:21:00,63.4,59.5,29.56,North,0,0.0,0.0,87,0.00,,,0.00,WUHU216HW,2013-08-29 06:21:00,
2013-08-28 23:26:00,63.2,59.3,29.56,North,0,0.0,0.0,87,0.00,,,0.00,WUHU216HW,2013-08-29 06:26:00,
2013-08-28 23:31:00,63.2,59.3,29.56,North,0,0.0,0.0,87,0.00,,,0.00,WUHU216HW,2013-08-29 06:31:00,
2013-08-28 23:36:00,63.0,59.1,29.56,North,0,0.0,0.0,87,0.00,,,0.00,WUHU216HW,2013-08-29 06:36:00,
2013-08-28 23:41:00,63.0,59.1,29.56,North,0,0.0,0.0,87,0.00,,,0.00,WUHU216HW,2013-08-29 06:41:00,
2013-08-28 23:46:00,63.0,59.4,29.56,North,0,0.0,0.0,88,0.00,,,0.00,WUHU216HW,2013-08-29 06:46:00,
2013-08-28 23:51:00,63.0,59.4,29.57,North,0,0.0,0.0,88,0.00,,,0.00,WUHU216HW,2013-08-29 06:51:00,
2013-08-28 23:56:00,63.0,59.4,29.56,North,0,0.0,0.0,88,0.00,,,0.00,WUHU216HW,2013-08-29 06:56:00,